Hope Airport, British Columbia

3:57 AM PST on February 25, 2017 (GMT -0800)
Hope

Weather History for CYHE - April, 2013

Change the Weather History Date:

Friday, April 19, 2013

  Actual Average Record
Temperature  
Mean Temperature 48 °F -  
Max Temperature 52 °F 62 °F 82 °F (2016)
Min Temperature 45 °F 44 °F 33 °F (2008)
Degree Days  
Heating Degree Days 16    
Moisture  
Dew Point 47 °F    
Average Humidity 91    
Maximum Humidity 100    
Minimum Humidity 82    
Precipitation  
Precipitation 0.24 in 0.14 in - ()
Sea Level Pressure  
Sea Level Pressure 30.08 in    
Wind  
Wind Speed 7 mph ()    
Max Wind Speed 17 mph    
Max Gust Speed 25 mph    
Visibility 7.3 miles    
Events Rain    
Averages and records for this station are not official NWS values.
T = Trace of Precipitation, MM = Missing Value Source: Averaged Metar Reports

Daily Weather History Graph

Daily Weather History Graph

Search for Another Location

Airport or City:

Trip Planner

Search our weather history database for the weather conditions in past years. The results will help you decide how hot, cold, wet, or windy it might be!

Date:

Astronomy

Apr. 19, 2013 Rise Set
Actual Time 6:05 AM PDT 8:05 PM PDT
Civil Twilight 5:31 AM PDT 8:39 PM PDT
Nautical Twilight 4:49 AM PDT 9:22 PM PDT
Astronomical Twilight 4:01 AM PDT 10:10 PM PDT
Moon 1:22 PM PDT (4/19) 2:57 AM PDT (4/19)
Length of Visible Light 15h 08m
Length of Day
13h 59m
Waxing Gibbous, 62% of the Moon is Illuminated
Apr 19
Waxing Gibbous
Apr 25
Full
May 2
Last Quarter
May 9
New
May 17
First Quarter

Hourly Weather History & Observations

Time (PDT) Temp. Windchill Dew Point Humidity Pressure Visibility Wind Dir Wind Speed Gust Speed Precip Events Conditions
12:00 AM 46.4 °F 42.4 °F 44.6 °F 93% 30.17 in 6.0 mi WSW 8.1 mph - N/A Rain Light Rain
12:04 AM 46.4 °F 41.9 °F 44.6 °F 93% 30.17 in 5.0 mi WSW 9.2 mph - N/A Rain Light Rain
12:41 AM 46.4 °F 42.4 °F 44.6 °F 93% 30.17 in 6.0 mi West 8.1 mph - N/A Rain Light Rain
12:54 AM 46.4 °F 42.9 °F 44.6 °F 93% 30.16 in 5.0 mi West 6.9 mph - N/A Rain Light Rain
1:00 AM 46.4 °F 42.9 °F 44.6 °F 93% 30.16 in 4.0 mi WSW 6.9 mph - N/A Rain Light Rain
1:40 AM 46.4 °F 42.4 °F 44.6 °F 93% 30.15 in 6.0 mi West 8.1 mph - N/A Rain Light Rain
1:58 AM 46.4 °F 42.4 °F 44.6 °F 93% 30.15 in 8.0 mi West 8.1 mph - N/A Rain Light Rain
2:00 AM 46 °F - 45 °F 95% 30.14 in - WSW 8.1 mph - -  
2:00 AM 46.4 °F 42.4 °F 44.6 °F 93% 30.15 in 8.0 mi WSW 8.1 mph - N/A Rain Light Rain
2:44 AM 46.4 °F 42.9 °F 44.6 °F 93% 30.14 in 5.0 mi WSW 6.9 mph - N/A Rain Light Rain
3:35 AM 46.4 °F 42.4 °F 44.6 °F 93% 30.12 in 2.5 mi SW 8.1 mph - N/A Rain Light Rain
3:39 AM 46.4 °F 42.9 °F 44.6 °F 93% 30.12 in 2.5 mi SW 6.9 mph - N/A Rain Light Rain
3:43 AM 46.4 °F 42.4 °F 44.6 °F 93% 30.12 in 3.0 mi WSW 8.1 mph - N/A Rain Light Rain
4:00 AM 46.4 °F 42.4 °F 44.6 °F 93% 30.12 in 3.0 mi West 8.1 mph - N/A Rain Light Rain
5:00 AM 46 °F - 45 °F 94% 30.10 in - SW 6.9 mph - -  
5:00 AM 46.4 °F 42.4 °F 44.6 °F 93% 30.11 in 5.0 mi SW 8.1 mph - N/A Rain Light Rain
5:07 AM 46.4 °F 42.9 °F 44.6 °F 93% 30.11 in 6.0 mi SW 6.9 mph - N/A Rain Light Rain
6:00 AM 46.4 °F - 44.6 °F 93% 30.09 in 9.0 mi Calm Calm - N/A Rain Light Rain
6:13 AM 46.4 °F - 44.6 °F 93% 30.09 in 5.0 mi Calm Calm - N/A Rain Light Rain
6:17 AM 46.4 °F - 44.6 °F 93% 30.09 in 5.0 mi Calm Calm - N/A Rain Light Rain
6:22 AM 44.6 °F - 44.6 °F 100% 30.09 in 6.0 mi Calm Calm - N/A Rain Light Rain
6:40 AM 44.6 °F 42.2 °F 44.6 °F 100% 30.08 in 8.0 mi SW 4.6 mph - N/A   Overcast
7:00 AM 46.4 °F - 44.6 °F 93% 30.08 in 6.0 mi Variable 2.3 mph - N/A   Overcast
7:09 AM 46.4 °F - 44.6 °F 93% 30.07 in 6.0 mi Variable 2.3 mph - N/A Rain Light Rain
7:13 AM 46.4 °F - 44.6 °F 93% 30.07 in 5.0 mi Calm Calm - N/A Rain Light Rain
7:23 AM 46.4 °F - 44.6 °F 93% 30.07 in 7.0 mi Calm Calm - N/A Rain Light Rain
7:43 AM 46.4 °F - 44.6 °F 93% 30.07 in 5.0 mi Calm Calm - N/A Rain Light Rain
7:51 AM 46.4 °F - 44.6 °F 93% 30.07 in 8.0 mi Calm Calm - N/A Rain Light Rain
8:00 AM 46 °F - 45 °F 96% 30.06 in - West 1.2 mph - -  
8:00 AM 46.4 °F - 44.6 °F 93% 30.07 in 9.0 mi Calm Calm - N/A Rain Light Rain
8:17 AM 46.4 °F - 44.6 °F 93% 30.06 in 9.0 mi West 2.3 mph - N/A Rain Light Rain
8:27 AM 46.4 °F 44.3 °F 44.6 °F 93% 30.06 in 9.0 mi West 4.6 mph - N/A   Overcast
9:11 AM 48.2 °F - 46.4 °F 93% 30.06 in 9.0 mi West 4.6 mph - N/A   Overcast
9:21 AM 48.2 °F - 46.4 °F 93% 30.06 in 9.0 mi West 4.6 mph - N/A Rain Light Rain
9:22 AM 48.2 °F - 46.4 °F 93% 30.06 in 9.0 mi West 4.6 mph - N/A Rain Light Rain
9:28 AM 48.2 °F - 46.4 °F 93% 30.06 in 9.0 mi West 6.9 mph - N/A Rain Light Rain
9:33 AM 48.2 °F - 46.4 °F 93% 30.06 in 9.0 mi West 5.8 mph - N/A   Overcast
9:46 AM 48.2 °F - 46.4 °F 93% 30.06 in 9.0 mi West 5.8 mph - N/A Rain Light Rain
10:00 AM 48.2 °F - 46.4 °F 93% 30.06 in 9.0 mi West 9.2 mph - N/A Rain Light Rain
10:06 AM 48.2 °F - 46.4 °F 93% 30.06 in 9.0 mi West 8.1 mph - N/A Rain Light Rain
10:07 AM 48.2 °F - 44.6 °F 87% 30.06 in 9.0 mi West 9.2 mph - N/A Rain Light Rain
11:00 AM 49 °F - 48 °F 93% 30.06 in - WSW 6.9 mph - -  
11:00 AM 48.2 °F - 46.4 °F 93% 30.06 in 9.0 mi WSW 6.9 mph - N/A Rain Light Rain
11:11 AM 48.2 °F - 46.4 °F 93% 30.06 in 9.0 mi West 8.1 mph - N/A Rain Light Rain
11:42 AM 50.0 °F - 48.2 °F 94% 30.07 in 9.0 mi West 9.2 mph - N/A   Overcast
11:49 AM 50.0 °F - 46.4 °F 87% 30.06 in 8.0 mi West 9.2 mph - N/A Rain Light Rain
12:00 PM 50.0 °F - 46.4 °F 87% 30.06 in 6.0 mi West 6.9 mph - N/A Rain Light Rain
12:06 PM 50.0 °F - 48.2 °F 94% 30.06 in 6.0 mi West 8.1 mph - N/A Rain Light Rain
12:18 PM 50.0 °F - 46.4 °F 87% 30.06 in 8.0 mi West 8.1 mph - N/A   Overcast
12:32 PM 50.0 °F - 48.2 °F 94% 30.06 in 9.0 mi West 6.9 mph - N/A Rain Light Rain
1:00 PM 50.0 °F - 48.2 °F 94% 30.06 in 9.0 mi West 8.1 mph - N/A Rain Light Rain
1:13 PM 50.0 °F - 48.2 °F 94% 30.06 in 9.0 mi WNW 8.1 mph - N/A Rain Light Rain
1:39 PM 51.8 °F - 48.2 °F 88% 30.06 in 9.0 mi WNW 8.1 mph 20.7 mph N/A   Overcast
2:00 PM 52 °F - 49 °F 86% 30.05 in - West 9.2 mph - -  
2:00 PM 53.6 °F - 48.2 °F 82% 30.05 in 9.0 mi WNW 8.1 mph 20.7 mph N/A   Overcast
2:30 PM 53.6 °F - 48.2 °F 82% 30.05 in 9.0 mi West 11.5 mph 19.6 mph N/A Rain Light Rain
3:00 PM 53.6 °F - 48.2 °F 82% 30.05 in 9.0 mi WNW 10.4 mph 20.7 mph N/A Rain Light Rain
3:03 PM 53.6 °F - 48.2 °F 82% 30.05 in 9.0 mi WNW 10.4 mph 20.7 mph N/A   Overcast
3:20 PM 51.8 °F - 48.2 °F 88% 30.04 in 5.0 mi West 16.1 mph - N/A Rain Light Rain
4:00 PM 51.8 °F - 50.0 °F 94% 30.04 in 5.0 mi WNW 12.7 mph 18.4 mph N/A Rain Light Rain
4:02 PM 51.8 °F - 50.0 °F 94% 30.04 in 6.0 mi WNW 12.7 mph 20.7 mph N/A Rain Light Rain
4:05 PM 51.8 °F - 48.2 °F 88% 30.04 in 5.0 mi WNW 12.7 mph 20.7 mph N/A Rain Light Rain
4:25 PM 51.8 °F - 50.0 °F 94% 30.04 in 6.0 mi WNW 10.4 mph 25.3 mph N/A Rain Light Rain
4:35 PM 51.8 °F - 48.2 °F 88% 30.04 in 9.0 mi WNW 13.8 mph 21.9 mph N/A   Overcast
4:39 PM 51.8 °F - 48.2 °F 88% 30.04 in 5.0 mi WNW 17.3 mph 24.2 mph N/A Rain Light Rain
4:57 PM 51.8 °F - 50.0 °F 94% 30.04 in 6.0 mi WNW 13.8 mph 21.9 mph N/A Rain Light Rain
5:00 PM 52 °F - 49 °F 88% 30.03 in - West 12.7 mph - -  
5:00 PM 51.8 °F - 50.0 °F 94% 30.04 in 7.0 mi WNW 15.0 mph 23.0 mph N/A Rain Light Rain
5:08 PM 51.8 °F - 48.2 °F 88% 30.03 in 9.0 mi WNW 12.7 mph 25.3 mph N/A   Overcast
5:58 PM 51.8 °F - 48.2 °F 88% 30.04 in 9.0 mi WNW 17.3 mph 23.0 mph N/A Rain Light Rain
6:00 PM 51.8 °F - 48.2 °F 88% 30.04 in 9.0 mi WNW 11.5 mph 23.0 mph N/A Rain Light Rain
6:12 PM 51.8 °F - 46.4 °F 82% 30.04 in 9.0 mi West 11.5 mph 20.7 mph N/A   Overcast
6:24 PM 51.8 °F - 46.4 °F 82% 30.04 in 9.0 mi West 16.1 mph 24.2 mph N/A Rain Light Rain
7:00 PM 51.8 °F - 48.2 °F 88% 30.05 in 6.0 mi West 12.7 mph - N/A Rain Light Rain
7:03 PM 51.8 °F - 48.2 °F 88% 30.06 in 5.0 mi West 10.4 mph 18.4 mph N/A Rain Light Rain
7:07 PM 51.8 °F - 48.2 °F 88% 30.06 in 6.0 mi WSW 10.4 mph 18.4 mph N/A Rain Light Rain
7:23 PM 51.8 °F - 48.2 °F 88% 30.06 in 9.0 mi SW 8.1 mph - N/A   Overcast
7:31 PM 51.8 °F - 48.2 °F 88% 30.06 in 9.0 mi Variable 3.5 mph - N/A Rain Light Rain
8:00 PM 51 °F - 48 °F 85% 30.06 in - WSW 10.4 mph - -  
8:00 PM 51.8 °F - 48.2 °F 88% 30.06 in 7.0 mi West 10.4 mph 17.3 mph N/A Rain Light Rain
9:00 PM 51.8 °F - 46.4 °F 82% 30.08 in 9.0 mi West 11.5 mph - N/A Rain Light Rain
9:22 PM 51.8 °F - 46.4 °F 82% 30.09 in 9.0 mi SSW 4.6 mph - N/A   Overcast
10:00 PM 51.8 °F - 46.4 °F 82% 30.09 in 9.0 mi WSW 8.1 mph 19.6 mph N/A   Overcast
11:00 PM 51 °F - 48 °F 84% 30.08 in - SSW 5.8 mph - -  
11:00 PM 51.8 °F - 46.4 °F 82% 30.09 in 9.0 mi SW 6.9 mph - N/A   Overcast
11:04 PM 50.0 °F - 46.4 °F 87% 30.09 in 9.0 mi SSW 4.6 mph - N/A Rain Light Rain